Location: Anglesey
(53.1800°N, 4.2200°W)
Time: 01:42:05
(UTC+00:00)

N. Korean satellite - Pass Details

Date: 08 October 2017
Orbit: 461 x 513 km, 97.2° (Epoch: 11 December)

Event Time Altitude Azimuth Distance (km) Brightness Sun altitude
Rises 20:32:45 0° 217° (SW) 2,566 10.5 -18.1°
Reaches altitude 10° 20:36:06 10° 251° (WSW) 1,677 10.1 -18.6°
Maximum altitude 20:37:25 12° 273° (W) 1,572 10.3 -18.8°
Drops below altitude 10° 20:38:45 10° 295° (WNW) 1,671 10.5 -19.0°
Sets 20:42:04 0° 329° (NNW) 2,544 11.0 -19.4°
